H-2A R/B

Satellite information

Favourite Embed

Satellite Type and Status

ROCKET BODYIN ORBIT

Key statistics

Satellite H-2A R/B at a glance.

Uptime

6169

Days in orbit

Revolutions

≈ 15.0

Per day

Orbit

SSO

Sun Synchronous Orbit

Inclination

98.2

Latest

Satellite identification and parameters

Extended collection of information and parameters for H-2A R/B.

Object identification

Identified? True

Debris? False

Object name: H-2A R/B

International designator: 2009-002J

Object number (NORAD): 33500

Object ID (CCSDS): 33500

Country: JAPAN (JPN)

Current information (Y/N): Y

RCS size: LARGE

Orbital parameters

Period: 95.93 minutes

Inclination: 98.2375 deg

SMA: 6941.643 km

Apoapsis: 585.141 km

Periapsis: 541.875 km

RAAN: 356.4607 deg

Eccentricy: 0.0031164

Argument of periapsis: 46.3225 deg

Mean anomaly: 314.0572 deg

Mean motion: 15.01099043 rev/day

Mean motion (dot): 0.00004521 rev/day2

B* drag term: 0.00035495057 1/REarth

Two-line elements (TLE)

Creation date: Dec. 14, 2025, 3:07 a.m.

Reference frame: TEME

Reference center: EARTH

Epoch: Dec. 13, 2025, 2:46 p.m. UTC

TLE line 0: 0 H-2A R/B

TLE line 1: 1 33500U 09002J 25347.61547450 .00004521 00000-0 35495-3 0 9996

TLE line 2: 2 33500 98.2375 356.4607 0031164 46.3225 314.0572 15.01099043916476

Live tracking on map

Real-time ground track for satellite H-2A R/B.

In-orbit conjunctions

There are no conjunctions computed for H-2A R/B, at the moment. Check back to stay up to date, as we update our databases every day.

Go to all conjunctions

Associated space launch

Japanese Earth observation satellite. Launched with 7 secondary payloads.

H-2A R/B was lifted into orbit during the mission ‘H-IIA 202 | GOSAT’, on board a H-IIA space rocket.

The launch took place on Jan. 23, 2009, 3:54 a.m. from Yoshinobu Launch Complex LP-1.

For more information about the launch, click the button.

Launch to space H-IIA 202 | GOSAT
H-IIA 202 | GOSAT

Agency: N/A

Status: Launch Successful

Launch date: Jan. 23, 2009, 3:54 a.m. UTC

Rocket: H-IIA

Launch pad: Yoshinobu Launch Complex LP-1

Location: Tanegashima Space Center, Japan

...

Latest news about this satellite

There are no fresh news available about this satellite. Check back as we update our databases every day.


Newsletter sign-up

Weekly statistics, charts and insights to help you stay on top of the space industry.